When you browse on this site, cookies collect data to enhance your experience and personalize the content and advertising you see.
Visit our Privacy Policy to learn more. By continuing to use the site, you agree to this use of cookies and data.
  • In Schweiz
  • Länderverzeichnis
  • Für 7 Tage
  • Wassertemperatur
  • Satellitenkarten
  • Wetterkarte
  • Widgets
  • user-avatar
    Anmelden

    Stündliche Wetter Ganja

    Heute, 24 Mai, Freitag

    Zeit Temperatur Niederschläge Wind Luftdruck Luftfeuchtigkeit
    00:00 +20°C° 0 mm 1 m/S 724 mmHg 59%
    01:00 +20°C° 0 mm 1 m/S 724 mmHg 61%
    02:00 +20°C° 0 mm 1 m/S 724 mmHg 63%
    03:00 +19°C° 0 mm 2 m/S 724 mmHg 68%
    04:00 +19°C° 0 mm 2 m/S 724 mmHg 68%
    05:00 +19°C° 0 mm 2 m/S 724 mmHg 68%
    06:00 +20°C° 0 mm 2 m/S 724 mmHg 69%
    07:00 +21°C° 0 mm 2 m/S 724 mmHg 63%
    08:00 +23°C° 0 mm 2 m/S 724 mmHg 57%
    09:00 +24°C° 0 mm 2 m/S 724 mmHg 51%
    10:00 +25°C° 0 mm 2 m/S 723 mmHg 48%
    11:00 +26°C° 0 mm 3 m/S 723 mmHg 45%
    12:00 +27°C° 0 mm 3 m/S 723 mmHg 42%
    13:00 +28°C° 0.2 mm 3 m/S 723 mmHg 42%
    14:00 +28°C° 0.2 mm 2 m/S 723 mmHg 43%
    15:00 +28°C° 0.2 mm 2 m/S 722 mmHg 43%
    16:00 +27°C° 0.8 mm 3 m/S 723 mmHg 48%
    17:00 +26°C° 0.8 mm 3 m/S 723 mmHg 53%
    18:00 +25°C° 0.8 mm 3 m/S 723 mmHg 58%
    19:00 +25°C° 0.4 mm 3 m/S 724 mmHg 61%
    20:00 +24°C° 0.4 mm 2 m/S 724 mmHg 64%
    21:00 +24°C° 0.4 mm 2 m/S 725 mmHg 67%
    22:00 +23°C° 0.2 mm 2 m/S 725 mmHg 69%
    23:00 +21°C° 0.2 mm 2 m/S 725 mmHg 71%

    Morgen, 25 Mai, Samstag

    Zeit Temperatur Niederschläge Wind Luftdruck Luftfeuchtigkeit
    00:00 +21°C° 0.2 mm 2 m/S 725 mmHg 73%
    01:00 +20°C° 0 mm 2 m/S 725 mmHg 75%
    02:00 +20°C° 0 mm 2 m/S 725 mmHg 76%
    03:00 +20°C° 0 mm 1 m/S 725 mmHg 78%
    04:00 +21°C° 0 mm 1 m/S 725 mmHg 76%
    05:00 +21°C° 0 mm 1 m/S 725 mmHg 75%
    06:00 +19°C° 0 mm 0 m/S 725 mmHg 73%
    07:00 +23°C° 0 mm 1 m/S 725 mmHg 68%
    08:00 +24°C° 0 mm 1 m/S 725 mmHg 63%
    09:00 +25°C° 0 mm 2 m/S 724 mmHg 58%
    10:00 +27°C° 0 mm 2 m/S 724 mmHg 54%
    11:00 +28°C° 0 mm 2 m/S 724 mmHg 50%
    12:00 +29°C° 0 mm 2 m/S 723 mmHg 46%
    13:00 +30°C° 0 mm 2 m/S 723 mmHg 44%
    14:00 +30°C° 0 mm 2 m/S 723 mmHg 43%
    15:00 +31°C° 0 mm 2 m/S 722 mmHg 41%
    16:00 +31°C° 0 mm 2 m/S 722 mmHg 43%
    17:00 +30°C° 0 mm 2 m/S 722 mmHg 45%
    18:00 +30°C° 0 mm 2 m/S 722 mmHg 48%
    19:00 +28°C° 0.1 mm 2 m/S 723 mmHg 50%
    20:00 +27°C° 0.1 mm 2 m/S 723 mmHg 53%
    21:00 +26°C° 0.1 mm 2 m/S 723 mmHg 55%
    22:00 +25°C° 0 mm 2 m/S 723 mmHg 57%
    23:00 +24°C° 0 mm 2 m/S 723 mmHg 58%

    übermorgen, 26 Mai, Sonntag

    Zeit Temperatur Niederschläge Wind Luftdruck Luftfeuchtigkeit
    00:00 +24°C° 0 mm 2 m/S 723 mmHg 59%
    01:00 +22°C° 0.2 mm 3 m/S 723 mmHg 60%
    02:00 +21°C° 0.2 mm 3 m/S 723 mmHg 61%
    03:00 +20°C° 0.2 mm 4 m/S 723 mmHg 62%
    04:00 +21°C° 0 mm 4 m/S 723 mmHg 61%
    05:00 +21°C° 0 mm 4 m/S 723 mmHg 61%
    06:00 +21°C° 0 mm 4 m/S 723 mmHg 61%
    07:00 +23°C° 0 mm 4 m/S 723 mmHg 57%
    08:00 +25°C° 0 mm 4 m/S 723 mmHg 52%
    09:00 +27°C° 0 mm 4 m/S 723 mmHg 48%
    10:00 +28°C° 0.1 mm 4 m/S 723 mmHg 45%
    11:00 +29°C° 0.1 mm 4 m/S 723 mmHg 42%
    12:00 +30°C° 0.1 mm 3 m/S 722 mmHg 40%
    13:00 +30°C° 0.6 mm 3 m/S 722 mmHg 41%
    14:00 +30°C° 0.6 mm 2 m/S 722 mmHg 42%
    15:00 +29°C° 0.6 mm 2 m/S 722 mmHg 43%
    16:00 +29°C° 0.3 mm 2 m/S 722 mmHg 45%
    17:00 +29°C° 0.3 mm 1 m/S 722 mmHg 48%
    18:00 +28°C° 0.3 mm 1 m/S 722 mmHg 50%
    19:00 +27°C° 0.2 mm 1 m/S 723 mmHg 55%
    20:00 +25°C° 0.2 mm 1 m/S 724 mmHg 60%
    21:00 +24°C° 0.2 mm 1 m/S 724 mmHg 66%
    22:00 +23°C° 0.2 mm 1 m/S 724 mmHg 66%
    23:00 +23°C° 0.2 mm 2 m/S 725 mmHg 67%

    27 Mai, Montag

    Zeit Temperatur Niederschläge Wind Luftdruck Luftfeuchtigkeit
    00:00 +21°C° 0.2 mm 2 m/S 725 mmHg 68%
    01:00 +21°C° 0.1 mm 3 m/S 725 mmHg 69%
    02:00 +20°C° 0.1 mm 3 m/S 725 mmHg 70%
    03:00 +20°C° 0.1 mm 3 m/S 725 mmHg 71%
    04:00 +20°C° 0 mm 3 m/S 725 mmHg 70%
    05:00 +20°C° 0 mm 3 m/S 726 mmHg 68%
    06:00 +21°C° 0 mm 4 m/S 726 mmHg 67%
    07:00 +22°C° 0 mm 4 m/S 726 mmHg 62%
    08:00 +23°C° 0 mm 4 m/S 726 mmHg 56%
    09:00 +25°C° 0 mm 5 m/S 726 mmHg 50%
    10:00 +26°C° 0.2 mm 4 m/S 726 mmHg 48%
    11:00 +27°C° 0.2 mm 4 m/S 726 mmHg 45%
    12:00 +28°C° 0.2 mm 3 m/S 726 mmHg 42%
    13:00 +28°C° 0.3 mm 2 m/S 726 mmHg 41%
    14:00 +29°C° 0.3 mm 2 m/S 726 mmHg 40%
    15:00 +29°C° 0.3 mm 1 m/S 726 mmHg 38%
    16:00 +29°C° 0 mm 1 m/S 726 mmHg 40%
    17:00 +29°C° 0 mm 2 m/S 726 mmHg 41%
    18:00 +28°C° 0 mm 2 m/S 727 mmHg 43%
    19:00 +27°C° 0 mm 2 m/S 727 mmHg 46%
    20:00 +25°C° 0 mm 2 m/S 728 mmHg 50%
    21:00 +24°C° 0 mm 2 m/S 729 mmHg 53%
    22:00 +23°C° 0.1 mm 2 m/S 729 mmHg 57%
    23:00 +21°C° 0.1 mm 2 m/S 729 mmHg 62%

    28 Mai, Dienstag

    Zeit Temperatur Niederschläge Wind Luftdruck Luftfeuchtigkeit
    00:00 +20°C° 0.1 mm 2 m/S 729 mmHg 66%
    01:00 +21°C° 0 mm 1 m/S 729 mmHg 68%
    02:00 +20°C° 0 mm 1 m/S 729 mmHg 71%
    03:00 +19°C° 0 mm 1 m/S 729 mmHg 73%
    04:00 +20°C° 0 mm 1 m/S 729 mmHg 71%
    05:00 +20°C° 0 mm 1 m/S 730 mmHg 69%
    06:00 +21°C° 0 mm 1 m/S 730 mmHg 67%
    07:00 +22°C° 0 mm 1 m/S 730 mmHg 65%
    08:00 +23°C° 0 mm 2 m/S 730 mmHg 63%
    09:00 +23°C° 0 mm 2 m/S 730 mmHg 61%
    10:00 +24°C° 0 mm 2 m/S 729 mmHg 59%
    11:00 +25°C° 0 mm 2 m/S 729 mmHg 57%
    12:00 +26°C° 0 mm 3 m/S 729 mmHg 55%
    13:00 +27°C° 0 mm 3 m/S 729 mmHg 52%
    14:00 +27°C° 0 mm 3 m/S 728 mmHg 50%
    15:00 +28°C° 0 mm 3 m/S 728 mmHg 48%
    16:00 +28°C° 0.1 mm 3 m/S 729 mmHg 49%
    17:00 +27°C° 0.1 mm 3 m/S 729 mmHg 51%
    18:00 +27°C° 0.1 mm 4 m/S 729 mmHg 52%
    19:00 +26°C° 0 mm 3 m/S 729 mmHg 55%
    20:00 +25°C° 0 mm 3 m/S 730 mmHg 58%
    21:00 +22°C° 0 mm 3 m/S 730 mmHg 60%
    22:00 +23°C° 0 mm 2 m/S 730 mmHg 62%
    23:00 +21°C° 0 mm 2 m/S 730 mmHg 63%

    29 Mai, Mittwoch

    Zeit Temperatur Niederschläge Wind Luftdruck Luftfeuchtigkeit
    00:00 +21°C° 0 mm 2 m/S 730 mmHg 65%
    01:00 +21°C° 0 mm 1 m/S 730 mmHg 67%
    02:00 +21°C° 0 mm 1 m/S 730 mmHg 69%
    03:00 +20°C° 0 mm 1 m/S 729 mmHg 72%
    04:00 +20°C° 0 mm 1 m/S 730 mmHg 71%
    05:00 +21°C° 0 mm 1 m/S 730 mmHg 70%
    06:00 +21°C° 0 mm 1 m/S 730 mmHg 69%
    07:00 +22°C° 0 mm 1 m/S 730 mmHg 65%
    08:00 +23°C° 0 mm 1 m/S 729 mmHg 61%
    09:00 +24°C° 0 mm 1 m/S 729 mmHg 57%
    10:00 +25°C° 0 mm 2 m/S 729 mmHg 54%
    11:00 +26°C° 0 mm 2 m/S 729 mmHg 50%
    12:00 +27°C° 0 mm 2 m/S 728 mmHg 47%
    13:00 +28°C° 0 mm 3 m/S 728 mmHg 45%
    14:00 +29°C° 0 mm 3 m/S 727 mmHg 44%
    15:00 +29°C° 0 mm 3 m/S 727 mmHg 42%
    16:00 +29°C° 0 mm 3 m/S 727 mmHg 44%
    17:00 +28°C° 0 mm 3 m/S 727 mmHg 46%
    18:00 +28°C° 0 mm 3 m/S 727 mmHg 47%
    19:00 +27°C° 0 mm 3 m/S 727 mmHg 50%
    20:00 +25°C° 0 mm 2 m/S 728 mmHg 53%
    21:00 +24°C° 0 mm 2 m/S 728 mmHg 56%
    22:00 +23°C° 0 mm 2 m/S 728 mmHg 58%
    23:00 +23°C° 0 mm 2 m/S 728 mmHg 59%
    Mehr zeigen